#timestamp,LO_Frequency,Hit,StdDev 
1558576815.3,286046990.5,N
1558576835.1,286046993.3,N
1558576855.9,286046990.6,N
1558576875.7,286046993.4,N
1558576895.5,286046998.0,N
1558576915.4,286046997.0,N
1558576935.2,286047011.0,Y
1558576955.1,286047016.0,P
1558576956.0,286047016.0,N
1558576975.8,286047020.0,N
1558576995.6,286047014.6,N
1558577015.5,286047017.5,N
1558577035.3,286047019.6,N
1558577055.1,286047001.7,N
1558577075.9,286047002.5,N
1558577095.7,286046996.9,N
1558577115.6,286047004.7,N
1558577135.4,286047006.3,N
1558577155.2,286047007.0,N
1558577175.1,286047003.1,N
1558577176.0,286047003.1,N
1558577195.8,286047004.7,N
1558577215.6,286047013.1,N
1558577235.5,286047017.6,N
1558577255.3,286047021.5,N
1558577275.2,286047020.4,N
1558577295.9,286047010.2,N
1558577315.7,286047017.0,N
1558577335.6,286047014.5,N
1558577355.4,286047016.3,N
1558577375.2,286047018.9,N
1558577395.1,286047017.0,N
1558577396.0,286047017.0,N
1558577415.8,286047017.2,N
1558577435.7,286047020.8,N
1558577455.5,286047029.9,Y
1558577475.3,286047021.2,P
1558577495.2,286047020.3,P
1558577515.0,286047020.8,P
1558577515.9,286047020.8,Y
1558577535.8,286047000.8,P
1558577555.6,286047004.5,N
1558577575.4,286047006.1,N
1558577595.3,286047005.5,N
1558577615.1,286047003.8,N
1558577635.9,286047005.3,N
1558577655.7,286047015.5,N
1558577675.5,286047011.9,N
1558577695.4,286047019.3,Y
1558577715.2,286047007.8,P
1558577735.0,286047011.7,P
1558577735.9,286047011.7,P
1558577755.8,286047017.5,Y
1558577775.6,286047011.8,P
1558577795.5,286047009.5,P
1558577815.3,286047008.2,P
1558577835.1,286047009.0,Y
1558577855.9,286046990.9,P
1558577875.7,286046986.1,N
1558577895.6,286046982.1,N
1558577915.4,286046982.5,N
1558577935.2,286046989.8,N
1558577955.1,286046985.9,N
1558577956.0,286046985.9,N
1558577975.8,286046978.6,N
1558577995.6,286046980.9,N
1558578015.5,286046982.5,N
1558578035.3,286046978.6,N
1558578055.2,286046977.7,N
1558578075.9,286046986.6,N
1558578095.7,286046990.0,N
1558578115.6,286046985.4,N
1558578135.4,286046991.3,N
1558578155.2,286046992.8,N
1558578175.1,286046993.1,N
1558578176.0,286046993.1,N
1558578195.8,286046990.4,N
1558578215.7,286046994.5,N
1558578235.5,286046992.7,N
1558578255.3,286046994.1,N
1558578275.2,286046993.3,N
1558578295.0,286046992.2,N
1558578295.9,286046992.2,N
1558578315.8,286046994.1,N
1558578335.6,286046995.4,N
1558578355.4,286047000.1,N
1558578375.3,286047005.0,N
1558578395.1,286047014.0,N
1558578415.9,286047023.1,N
1558578435.7,286047031.7,Y
1558578455.5,286047046.2,P
1558578475.4,286047048.7,N
1558578495.2,286047047.6,N
1558578515.0,286047054.9,N
1558578515.9,286047054.9,N
1558578535.8,286047051.0,N
1558578555.6,286047046.7,N
1558578575.5,286047046.5,N
1558578595.3,286047051.1,N
1558578615.1,286047055.0,Y
1558578635.9,286047010.4,P
1558578655.7,286047009.5,N
1558578675.6,286047012.4,N
1558578695.4,286047011.1,N
1558578715.2,286047015.4,N
1558578735.1,286047017.0,N
1558578736.0,286047017.0,N
1558578755.8,286047015.8,N
1558578775.6,286047020.3,N
1558578795.5,286047015.7,N
1558578815.3,286047026.8,N
1558578835.2,286047027.9,Y
1558578855.0,286047008.4,P
1558578855.9,286047008.4,N
1558578875.7,286046997.2,N
1558578895.6,286046994.7,N
1558578915.4,286047003.4,N
1558578935.3,286046996.1,N
1558578955.1,286047007.6,N
1558578956.0,286047007.6,N
1558578975.8,286047004.1,N
1558578995.7,286047002.5,N
1558579015.5,286047000.6,N
1558579035.3,286047002.5,N
1558579055.2,286047005.8,N
1558579075.0,286047010.4,N
1558579075.9,286047010.4,N
1558579095.8,286047009.7,N
1558579115.6,286047011.6,N
1558579135.4,286047011.3,N
1558579155.3,286047012.1,N
1558579175.1,286047010.2,N
1558579195.9,286047008.9,N
1558579215.7,286047006.4,N
1558579235.5,286047008.1,N
1558579255.4,286047012.7,N
1558579275.2,286047016.7,Y
1558579295.0,286047014.2,P
1558579295.9,286047014.2,P
1558579315.8,286047009.6,N
1558579335.6,286047008.2,N
1558579355.5,286047006.4,N
1558579375.3,286047009.2,N
1558579395.1,286047005.8,N
1558579415.9,286047007.1,N
1558579435.7,286046998.9,N
1558579455.5,286046998.9,N
1558579475.4,286046997.3,N
1558579495.2,286046995.8,N
1558579515.1,286046992.0,N
1558579516.0,286046992.0,N
1558579535.8,286046987.2,N
1558579555.6,286046986.6,N
1558579575.5,286046986.7,N
1558579595.3,286046982.5,N
1558579615.2,286046980.9,N
1558579635.9,286046982.3,N
1558579655.7,286046980.8,N
1558579675.6,286046978.7,N
1558579695.4,286046966.8,N
1558579715.2,286046970.4,N
1558579735.1,286046966.1,N
1558579736.0,286046966.1,N
1558579755.8,286046967.0,N
1558579775.7,286046962.8,N
1558579795.5,286046956.2,N
1558579815.3,286046956.3,N
1558579835.2,286046948.7,N
1558579855.0,286046947.2,N
1558579855.9,286046947.2,N
1558579875.7,286046953.8,N
1558579895.6,286046956.9,N
1558579915.4,286046953.8,N
1558579935.3,286046958.7,N
1558579955.1,286046962.7,N
1558579975.8,286046958.2,N
1558579995.7,286046955.0,N
1558580015.5,286046956.5,N
1558580035.4,286046961.1,N
1558580055.2,286046958.2,Y
1558580075.0,286046995.9,P
1558580075.9,286046995.9,N
1558580095.8,286046995.5,N
1558580115.6,286046995.0,N
1558580135.4,286046997.6,N
1558580155.3,286047001.9,N
1558580175.1,286047000.6,N
1558580195.9,286047001.1,N
1558580215.7,286046999.1,N
1558580235.5,286046996.8,N
1558580255.4,286047004.4,N
1558580275.2,286047001.9,N
1558580295.0,286046996.9,N
1558580296.0,286046996.9,N
1558580315.8,286046993.9,N
1558580335.6,286046987.2,N
1558580355.5,286046991.1,N
1558580375.3,286046995.3,N
1558580395.1,286046995.8,N
